,,,PA_Meas_PMT16A,,PR_Meas_QMR101_102,,RH_Meas_QMH101,,SR_Meas_QMS101,,TA_Meas_QMH101,,GenWind,,GenWind,
date,time,status,PA,status,PR,status,RH,status,SR,status,TA,status,DirAvg,status,SpdAvg,
2011-01-22, 00:00:04,VALID,1009.83,VALID,0,VALID,99.6915,VALID,0,VALID,23.5966,VALID,293,VALID,0.299609,
2011-01-22, 00:01:04,VALID,1009.87,VALID,0,VALID,99.6152,VALID,0,VALID,23.5966,VALID,288,VALID,0,
2011-01-22, 00:02:04,VALID,1009.88,VALID,0,VALID,99.4932,VALID,0,VALID,23.6161,VALID,310,VALID,0.444531,
2011-01-22, 00:03:04,VALID,1009.9,VALID,0,VALID,99.5161,VALID,0,VALID,23.6161,VALID,317,VALID,0.0902344,
2011-01-22, 00:04:04,VALID,1009.86,VALID,0,VALID,99.6533,VALID,0,VALID,23.6161,VALID,317,VALID,0.210156,
2011-01-22, 00:05:04,VALID,1009.87,VALID,0,VALID,99.7067,VALID,0,VALID,23.5753,VALID,317,VALID,0.375781,
2011-01-22, 00:06:04,VALID,1009.87,VALID,0,VALID,99.6533,VALID,0,VALID,23.5966,VALID,317,VALID,0.192188,
2011-01-22, 00:07:04,VALID,1009.85,VALID,0,VALID,99.783,VALID,0,VALID,23.5771,VALID,317,VALID,0.257813,
2011-01-22, 00:08:04,VALID,1009.88,VALID,0,VALID,99.9965,VALID,0,VALID,23.5771,VALID,317,VALID,0.103125,
2011-01-22, 00:09:04,VALID,1009.85,VALID,0,VALID,99.8821,VALID,0,VALID,23.5576,VALID,317,VALID,0.00585938,
2011-01-22, 00:10:04,VALID,1009.86,VALID,0,VALID,100.065,VALID,0,VALID,23.5576,VALID,317,VALID,0,
2011-01-22, 00:11:04,VALID,1009.86,VALID,0,VALID,100.065,VALID,0,VALID,23.5381,VALID,317,VALID,0,
2011-01-22, 00:12:04,VALID,1009.85,VALID,0,VALID,100.111,VALID,0,VALID,23.5381,VALID,317,VALID,0.003125,
2011-01-22, 00:13:04,VALID,1009.86,VALID,0,VALID,100.164,VALID,0,VALID,23.5381,VALID,317,VALID,0.0199219,
2011-01-22, 00:14:04,VALID,1009.89,VALID,0,VALID,100.065,VALID,0,VALID,23.5576,VALID,309,VALID,0.197266,
2011-01-22, 00:15:04,VALID,1009.89,VALID,0,VALID,100.065,VALID,0,VALID,23.5771,VALID,309,VALID,0,
2011-01-22, 00:16:04,VALID,1009.86,VALID,0,VALID,99.9126,VALID,0,VALID,23.5576,VALID,338,VALID,0.574609,
2011-01-22, 00:17:04,VALID,1009.85,VALID,0,VALID,99.9965,VALID,0.105969,VALID,23.5771,VALID,357,VALID,0.680469,
2011-01-22, 00:18:04,VALID,1009.84,VALID,0,VALID,99.8516,VALID,0,VALID,23.5576,VALID,5,VALID,0.378125,
2011-01-22, 00:19:04,VALID,1009.85,VALID,0,VALID,99.9813,VALID,0,VALID,23.5771,VALID,5,VALID,0.171094,
2011-01-22, 00:20:04,VALID,1009.82,VALID,0,VALID,100.035,VALID,0,VALID,23.5576,VALID,5,VALID,0,
2011-01-22, 00:21:04,VALID,1009.81,VALID,0,VALID,100.126,VALID,0,VALID,23.5576,VALID,5,VALID,0,
2011-01-22, 00:22:04,VALID,1009.79,VALID,0,VALID,100.279,VALID,0,VALID,23.5381,VALID,5,VALID,0,
2011-01-22, 00:23:04,VALID,1009.78,VALID,0,VALID,100.21,VALID,0,VALID,23.4992,VALID,5,VALID,0,
2011-01-22, 00:24:04,VALID,1009.76,VALID,0,VALID,100.248,VALID,0,VALID,23.5186,VALID,5,VALID,0,
2011-01-22, 00:25:04,VALID,1009.75,VALID,0,VALID,100.363,VALID,0,VALID,23.5186,VALID,5,VALID,0,
2011-01-22, 00:26:04,VALID,1009.76,VALID,0,VALID,100.393,VALID,0,VALID,23.4992,VALID,312,VALID,0.673047,
2011-01-22, 00:27:04,VALID,1009.74,VALID,0,VALID,100.507,VALID,0,VALID,23.5381,VALID,309,VALID,0.100781,
2011-01-22, 00:28:04,VALID,1009.72,VALID,0,VALID,100.424,VALID,0,VALID,23.5186,VALID,309,VALID,0.280078,
2011-01-22, 00:29:04,VALID,1009.71,VALID,0,VALID,100.332,VALID,0,VALID,23.4992,VALID,309,VALID,0.288672,
2011-01-22, 00:30:04,VALID,1009.7,VALID,0,VALID,100.431,VALID,0,VALID,23.4797,VALID,309,VALID,0,
2011-01-22, 00:31:04,VALID,1009.68,VALID,0,VALID,100.469,VALID,0,VALID,23.4797,VALID,324,VALID,0.427344,
2011-01-22, 00:32:04,VALID,1009.67,VALID,0,VALID,100.538,VALID,0,VALID,23.4797,VALID,324,VALID,0,
2011-01-22, 00:33:04,VALID,1009.62,VALID,0,VALID,100.546,VALID,0,VALID,23.4992,VALID,316,VALID,0.24375,
2011-01-22, 00:34:04,VALID,1009.62,VALID,0,VALID,100.515,VALID,0,VALID,23.4797,VALID,316,VALID,0,
2011-01-22, 00:35:04,VALID,1009.59,VALID,0,VALID,100.507,VALID,0,VALID,23.5204,VALID,316,VALID,0,
2011-01-22, 00:36:04,VALID,1009.59,VALID,0,VALID,100.492,VALID,0,VALID,23.4992,VALID,316,VALID,0,
2011-01-22, 00:37:04,VALID,1009.56,VALID,0,VALID,100.515,VALID,0,VALID,23.4797,VALID,316,VALID,0,
2011-01-22, 00:38:04,VALID,1009.57,VALID,0,VALID,100.507,VALID,0,VALID,23.4992,VALID,315,VALID,0.0714844,
2011-01-22, 00:39:04,VALID,1009.54,VALID,0,VALID,100.538,VALID,0,VALID,23.4992,VALID,315,VALID,0,
2011-01-22, 00:40:04,VALID,1009.56,VALID,0,VALID,100.591,VALID,0,VALID,23.5186,VALID,315,VALID,0,
2011-01-22, 00:41:04,VALID,1009.54,VALID,0,VALID,100.675,VALID,0,VALID,23.5186,VALID,315,VALID,0,
2011-01-22, 00:42:04,VALID,1009.53,VALID,0,VALID,100.607,VALID,0,VALID,23.5381,VALID,315,VALID,0.00820312,
2011-01-22, 00:43:04,VALID,1009.55,VALID,0,VALID,100.37,VALID,0,VALID,23.5363,VALID,298,VALID,0.255469,
2011-01-22, 00:44:04,VALID,1009.53,VALID,0,VALID,100.363,VALID,0,VALID,23.5771,VALID,298,VALID,0.239063,
2011-01-22, 00:45:04,VALID,1009.53,VALID,0,VALID,100.446,VALID,0,VALID,23.5771,VALID,298,VALID,0.0105469,
2011-01-22, 00:46:04,VALID,1009.54,VALID,0,VALID,100.355,VALID,0,VALID,23.5576,VALID,334,VALID,0.144531,
2011-01-22, 00:47:04,VALID,1009.54,VALID,0,VALID,100.37,VALID,0,VALID,23.5576,VALID,342,VALID,0.159375,
2011-01-22, 00:48:04,VALID,1009.53,VALID,0,VALID,100.408,VALID,0,VALID,23.5789,VALID,342,VALID,0.0113281,
2011-01-22, 00:49:04,VALID,1009.51,VALID,0,VALID,100.378,VALID,0,VALID,23.5576,VALID,312,VALID,0.210547,
2011-01-22, 00:50:04,VALID,1009.51,VALID,0,VALID,100.378,VALID,0,VALID,23.5984,VALID,311,VALID,0.367188,
2011-01-22, 00:51:04,VALID,1009.51,VALID,0,VALID,100.149,VALID,0,VALID,23.5771,VALID,339,VALID,0.0667969,
2011-01-22, 00:52:04,VALID,1009.51,VALID,0,VALID,99.966,VALID,0,VALID,23.5966,VALID,332,VALID,0.730078,
2011-01-22, 00:53:04,VALID,1009.49,VALID,0,VALID,99.8974,VALID,0,VALID,23.6356,VALID,300,VALID,0.549609,
2011-01-22, 00:54:04,VALID,1009.48,VALID,0,VALID,99.5847,VALID,0,VALID,23.655,VALID,297,VALID,0.430859,
2011-01-22, 00:55:04,VALID,1009.47,VALID,0,VALID,99.3559,VALID,0,VALID,23.694,VALID,293,VALID,0.232031,
2011-01-22, 00:56:04,VALID,1009.45,VALID,0,VALID,99.2721,VALID,0.105969,VALID,23.733,VALID,293,VALID,0.223047,
2011-01-22, 00:57:04,VALID,1009.43,VALID,0,VALID,99.2721,VALID,0,VALID,23.733,VALID,293,VALID,0.0640625,
2011-01-22, 00:58:04,VALID,1009.41,VALID,0,VALID,99.1119,VALID,0,VALID,23.733,VALID,293,VALID,0.348047,
2011-01-22, 00:59:04,VALID,1009.4,VALID,0,VALID,98.967,VALID,0,VALID,23.772,VALID,293,VALID,0.303516,
2011-01-22, 01:00:04,VALID,1009.36,VALID,0,VALID,98.7459,VALID,0,VALID,23.7525,VALID,293,VALID,0.527344,
2011-01-22, 01:01:04,VALID,1009.37,VALID,0,VALID,98.7001,VALID,0,VALID,23.7932,VALID,283,VALID,0.175391,
2011-01-22, 01:02:04,VALID,1009.34,VALID,0,VALID,98.6391,VALID,0,VALID,23.7914,VALID,282,VALID,0.228125,
2011-01-22, 01:03:04,VALID,1009.33,VALID,0,VALID,98.8831,VALID,0,VALID,23.772,VALID,282,VALID,0,
2011-01-22, 01:04:04,VALID,1009.33,VALID,0,VALID,98.7001,VALID,0,VALID,23.772,VALID,301,VALID,0.889063,
2011-01-22, 01:05:04,VALID,1009.34,VALID,0,VALID,98.723,VALID,0,VALID,23.772,VALID,292,VALID,0.291016,
2011-01-22, 01:06:04,VALID,1009.31,VALID,0,VALID,98.7611,VALID,0,VALID,23.7507,VALID,297,VALID,0.594531,
2011-01-22, 01:07:04,VALID,1009.33,VALID,0,VALID,98.601,VALID,0,VALID,23.772,VALID,292,VALID,0.637109,
2011-01-22, 01:08:04,VALID,1009.31,VALID,0,VALID,98.9899,VALID,0,VALID,23.772,VALID,305,VALID,0,
2011-01-22, 01:09:04,VALID,1009.3,VALID,0,VALID,99.2568,VALID,0,VALID,23.7525,VALID,266,VALID,0.200781,
2011-01-22, 01:10:04,VALID,1009.28,VALID,0,VALID,99.4703,VALID,0,VALID,23.733,VALID,266,VALID,0,
2011-01-22, 01:11:04,VALID,1009.28,VALID,0,VALID,99.4322,VALID,0,VALID,23.6745,VALID,266,VALID,0.338672,
2011-01-22, 01:12:04,VALID,1009.27,VALID,0,VALID,99.5085,VALID,0,VALID,23.6745,VALID,266,VALID,0.161328,
2011-01-22, 01:13:04,VALID,1009.23,VALID,0,VALID,99.5008,VALID,0,VALID,23.655,VALID,295,VALID,0.238281,
2011-01-22, 01:14:04,VALID,1009.26,VALID,0,VALID,99.4474,VALID,0,VALID,23.655,VALID,295,VALID,0,
2011-01-22, 01:15:04,VALID,1009.23,VALID,0,VALID,99.5161,VALID,0,VALID,23.655,VALID,295,VALID,0.00390625,
2011-01-22, 01:16:04,VALID,1009.22,VALID,0,VALID,99.5237,VALID,0,VALID,23.655,VALID,299,VALID,0.471484,
2011-01-22, 01:17:04,VALID,1009.23,VALID,0,VALID,99.3712,VALID,0,VALID,23.6356,VALID,294,VALID,0.392188,
2011-01-22, 01:18:04,VALID,1009.25,VALID,0,VALID,99.4856,VALID,0,VALID,23.655,VALID,294,VALID,0.253516,
2011-01-22, 01:19:04,VALID,1009.19,VALID,0,VALID,99.539,VALID,0,VALID,23.6356,VALID,294,VALID,0.118359,
2011-01-22, 01:20:04,VALID,1009.22,VALID,0,VALID,99.5695,VALID,0,VALID,23.6161,VALID,335,VALID,0.599219,
2011-01-22, 01:21:04,VALID,1009.2,VALID,0,VALID,99.6305,VALID,0,VALID,23.6161,VALID,324,VALID,0.205469,
2011-01-22, 01:22:04,VALID,1009.19,VALID,0,VALID,99.7525,VALID,0,VALID,23.5966,VALID,330,VALID,0.0535156,
2011-01-22, 01:23:04,VALID,1009.2,VALID,0,VALID,99.9889,VALID,0,VALID,23.5771,VALID,330,VALID,0.332031,
2011-01-22, 01:24:04,VALID,1009.19,VALID,0,VALID,99.9965,VALID,0,VALID,23.5789,VALID,330,VALID,0.185156,
2011-01-22, 01:25:04,VALID,1009.19,VALID,0,VALID,100.035,VALID,0,VALID,23.5381,VALID,330,VALID,0.100781,
2011-01-22, 01:26:04,VALID,1009.19,VALID,0,VALID,100.065,VALID,0,VALID,23.5186,VALID,330,VALID,0,
2011-01-22, 01:27:04,VALID,1009.19,VALID,0,VALID,100.073,VALID,0,VALID,23.4992,VALID,330,VALID,0,
2011-01-22, 01:28:04,VALID,1009.2,VALID,0,VALID,100.149,VALID,0,VALID,23.5204,VALID,297,VALID,0.458594,
2011-01-22, 01:29:04,VALID,1009.2,VALID,0,VALID,100.225,VALID,0,VALID,23.4992,VALID,286,VALID,0.118359,
2011-01-22, 01:30:04,VALID,1009.19,VALID,0,VALID,100.111,VALID,0,VALID,23.4992,VALID,286,VALID,0,
2011-01-22, 01:31:04,VALID,1009.21,VALID,0,VALID,100.088,VALID,0,VALID,23.4992,VALID,286,VALID,0,
2011-01-22, 01:32:04,VALID,1009.22,VALID,0,VALID,100.134,VALID,0,VALID,23.5399,VALID,286,VALID,0,
2011-01-22, 01:33:04,VALID,1009.21,VALID,0,VALID,100.18,VALID,0,VALID,23.4992,VALID,286,VALID,0,
2011-01-22, 01:34:04,VALID,1009.23,VALID,0,VALID,100.225,VALID,0,VALID,23.4992,VALID,286,VALID,0.0496094,
2011-01-22, 01:35:04,VALID,1009.23,VALID,0,VALID,100.241,VALID,0,VALID,23.5204,VALID,286,VALID,0,
2011-01-22, 01:36:04,VALID,1009.23,VALID,0,VALID,100.233,VALID,0,VALID,23.4992,VALID,286,VALID,0,
2011-01-22, 01:37:04,VALID,1009.24,VALID,0,VALID,100.294,VALID,0,VALID,23.4992,VALID,308,VALID,0.350781,
2011-01-22, 01:38:04,VALID,1009.2,VALID,0,VALID,100.363,VALID,0,VALID,23.4992,VALID,317,VALID,0.130859,
2011-01-22, 01:39:04,VALID,1009.22,VALID,0,VALID,100.523,VALID,0,VALID,23.4992,VALID,317,VALID,0.237109,
2011-01-22, 01:40:04,VALID,1009.21,VALID,0,VALID,100.546,VALID,0,VALID,23.4602,VALID,317,VALID,0,
2011-01-22, 01:41:04,VALID,1009.22,VALID,0,VALID,100.492,VALID,0,VALID,23.4407,VALID,317,VALID,0.142969,
2011-01-22, 01:42:04,VALID,1009.2,VALID,0,VALID,100.439,VALID,0,VALID,23.4407,VALID,317,VALID,0.314844,
2011-01-22, 01:43:04,VALID,1009.22,VALID,0,VALID,100.607,VALID,0,VALID,23.4407,VALID,317,VALID,0.137109,
2011-01-22, 01:44:04,VALID,1009.18,VALID,0,VALID,100.698,VALID,0,VALID,23.4212,VALID,317,VALID,0.181641,
2011-01-22, 01:45:04,VALID,1009.21,VALID,0,VALID,100.896,VALID,0,VALID,23.4017,VALID,317,VALID,0.221875,
2011-01-22, 01:46:04,VALID,1009.24,VALID,0,VALID,100.957,VALID,0,VALID,23.3628,VALID,317,VALID,0.00585938,
2011-01-22, 01:47:04,VALID,1009.23,VALID,0,VALID,101.171,VALID,0,VALID,23.3628,VALID,317,VALID,0,
2011-01-22, 01:48:04,VALID,1009.19,VALID,0,VALID,101.278,VALID,0,VALID,23.3433,VALID,317,VALID,0.00234375,
2011-01-22, 01:49:04,VALID,1009.21,VALID,0,VALID,101.346,VALID,0,VALID,23.3238,VALID,317,VALID,0.0839844,
2011-01-22, 01:50:04,VALID,1009.23,VALID,0,VALID,101.331,VALID,0,VALID,23.3238,VALID,317,VALID,0,
2011-01-22, 01:51:04,VALID,1009.21,VALID,0,VALID,101.255,VALID,0,VALID,23.3238,VALID,317,VALID,0,
2011-01-22, 01:52:04,VALID,1009.23,VALID,0,VALID,101.262,VALID,0,VALID,23.3238,VALID,317,VALID,0,
2011-01-22, 01:53:04,VALID,1009.23,VALID,0,VALID,101.224,VALID,0,VALID,23.3433,VALID,317,VALID,0,
2011-01-22, 01:54:04,VALID,1009.25,VALID,0,VALID,101.301,VALID,0,VALID,23.3433,VALID,317,VALID,0,
2011-01-22, 01:55:04,VALID,1009.24,VALID,0,VALID,101.209,VALID,0,VALID,23.3238,VALID,335,VALID,0.496094,
2011-01-22, 01:56:04,VALID,1009.26,VALID,0,VALID,101.087,VALID,0,VALID,23.3238,VALID,349,VALID,0.286719,
2011-01-22, 01:57:04,VALID,1009.24,VALID,0,VALID,101.011,VALID,0,VALID,23.3433,VALID,349,VALID,0.344922,
2011-01-22, 01:58:04,VALID,1009.26,VALID,0,VALID,100.904,VALID,0,VALID,23.3238,VALID,349,VALID,0.31875,
2011-01-22, 01:59:04,VALID,1009.28,VALID,0,VALID,100.889,VALID,0,VALID,23.3238,VALID,349,VALID,0.290625,
2011-01-22, 02:00:04,VALID,1009.29,VALID,0,VALID,100.904,VALID,0,VALID,23.3043,VALID,349,VALID,0.354297,
2011-01-22, 02:01:04,VALID,1009.3,VALID,0,VALID,101.003,VALID,0,VALID,23.2848,VALID,349,VALID,0.174609,
2011-01-22, 02:02:04,VALID,1009.32,VALID,0,VALID,101.186,VALID,0,VALID,23.2866,VALID,349,VALID,0,
2011-01-22, 02:03:04,VALID,1009.3,VALID,0,VALID,101.323,VALID,0,VALID,23.2654,VALID,349,VALID,0,
2011-01-22, 02:04:04,VALID,1009.32,VALID,0,VALID,101.415,VALID,0,VALID,23.2459,VALID,349,VALID,0,
2011-01-22, 02:05:04,VALID,1009.31,VALID,0,VALID,101.545,VALID,0,VALID,23.2264,VALID,349,VALID,0,
2011-01-22, 02:06:04,VALID,1009.33,VALID,0,VALID,101.674,VALID,0,VALID,23.1874,VALID,349,VALID,0,
2011-01-22, 02:07:04,VALID,1009.34,VALID,0,VALID,101.811,VALID,0,VALID,23.1679,VALID,349,VALID,0,
2011-01-22, 02:08:04,VALID,1009.36,VALID,0,VALID,101.949,VALID,0,VALID,23.1485,VALID,349,VALID,0,
2011-01-22, 02:09:04,VALID,1009.37,VALID,0,VALID,102.071,VALID,0,VALID,23.129,VALID,349,VALID,0,
2011-01-22, 02:10:04,VALID,1009.39,VALID,0,VALID,102.17,VALID,0,VALID,23.1095,VALID,349,VALID,0,
2011-01-22, 02:11:04,VALID,1009.4,VALID,0,VALID,102.254,VALID,0,VALID,23.1095,VALID,349,VALID,0,
2011-01-22, 02:12:04,VALID,1009.39,VALID,0,VALID,102.338,VALID,0,VALID,23.09,VALID,349,VALID,0,
2011-01-22, 02:13:04,VALID,1009.39,VALID,0,VALID,102.429,VALID,0,VALID,23.0705,VALID,349,VALID,0,
2011-01-22, 02:14:04,VALID,1009.42,VALID,0,VALID,102.513,VALID,0,VALID,23.0705,VALID,349,VALID,0,
2011-01-22, 02:15:04,VALID,1009.43,VALID,0,VALID,102.589,VALID,0,VALID,23.09,VALID,349,VALID,0,
2011-01-22, 02:16:04,VALID,1009.42,VALID,0,VALID,102.666,VALID,0,VALID,23.0493,VALID,349,VALID,0,
2011-01-22, 02:17:04,VALID,1009.44,VALID,0,VALID,102.704,VALID,0,VALID,23.09,VALID,349,VALID,0,
2011-01-22, 02:18:04,VALID,1009.42,VALID,0,VALID,102.742,VALID,0.105969,VALID,23.0705,VALID,349,VALID,0,
2011-01-22, 02:19:04,VALID,1009.46,VALID,0,VALID,102.757,VALID,0,VALID,23.0705,VALID,349,VALID,0,
2011-01-22, 02:20:04,VALID,1009.45,VALID,0,VALID,102.772,VALID,0,VALID,23.0705,VALID,349,VALID,0,
2011-01-22, 02:21:04,VALID,1009.44,VALID,0,VALID,102.818,VALID,0,VALID,23.09,VALID,349,VALID,0,
2011-01-22, 02:22:04,VALID,1009.43,VALID,0,VALID,102.826,VALID,0,VALID,23.1095,VALID,349,VALID,0,
2011-01-22, 02:23:04,VALID,1009.39,VALID,0,VALID,102.742,VALID,0,VALID,23.1485,VALID,349,VALID,0,
2011-01-22, 02:24:04,VALID,1009.37,VALID,0,VALID,102.574,VALID,0.105969,VALID,23.1874,VALID,349,VALID,0.171875,
2011-01-22, 02:25:04,VALID,1009.36,VALID,0,VALID,102.399,VALID,0,VALID,23.2069,VALID,349,VALID,0.00585938,
2011-01-22, 02:26:04,VALID,1009.36,VALID,0,VALID,102.246,VALID,0,VALID,23.2264,VALID,349,VALID,0.0304688,
2011-01-22, 02:27:04,VALID,1009.39,VALID,0,VALID,102.116,VALID,0,VALID,23.2459,VALID,349,VALID,0,
2011-01-22, 02:28:04,VALID,1009.35,VALID,0,VALID,102.002,VALID,0,VALID,23.2654,VALID,349,VALID,0,
2011-01-22, 02:29:04,VALID,1009.36,VALID,0,VALID,101.865,VALID,0,VALID,23.2848,VALID,349,VALID,0.0121094,
2011-01-22, 02:30:04,VALID,1009.37,VALID,0,VALID,101.781,VALID,0,VALID,23.2654,VALID,349,VALID,0.040625,
2011-01-22, 02:31:04,VALID,1009.35,VALID,0,VALID,101.743,VALID,0,VALID,23.2654,VALID,349,VALID,0,
2011-01-22, 02:32:04,VALID,1009.34,VALID,0,VALID,101.735,VALID,0,VALID,23.2654,VALID,349,VALID,0,
2011-01-22, 02:33:04,VALID,1009.33,VALID,0,VALID,101.75,VALID,0,VALID,23.2459,VALID,349,VALID,0.0394531,
2011-01-22, 02:34:04,VALID,1009.31,VALID,0,VALID,101.781,VALID,0,VALID,23.2459,VALID,349,VALID,0.279297,
2011-01-22, 02:35:04,VALID,1009.3,VALID,0,VALID,101.827,VALID,0,VALID,23.2051,VALID,349,VALID,0.184766,
2011-01-22, 02:36:04,VALID,1009.3,VALID,0,VALID,101.895,VALID,0,VALID,23.2264,VALID,349,VALID,0.242969,
2011-01-22, 02:37:04,VALID,1009.27,VALID,0,VALID,101.972,VALID,0,VALID,23.1874,VALID,349,VALID,0,
2011-01-22, 02:38:04,VALID,1009.27,VALID,0,VALID,102.033,VALID,0.105969,VALID,23.1874,VALID,349,VALID,0,
2011-01-22, 02:39:04,VALID,1009.25,VALID,0,VALID,102.071,VALID,0,VALID,23.1485,VALID,349,VALID,0,
2011-01-22, 02:40:04,VALID,1009.28,VALID,0,VALID,102.147,VALID,0,VALID,23.1077,VALID,349,VALID,0,
2011-01-22, 02:41:04,VALID,1009.28,VALID,0,VALID,102.254,VALID,0,VALID,23.1095,VALID,349,VALID,0,
2011-01-22, 02:42:04,VALID,1009.27,VALID,0,VALID,102.322,VALID,0,VALID,23.0705,VALID,349,VALID,0,
2011-01-22, 02:43:04,VALID,1009.27,VALID,0,VALID,102.406,VALID,0,VALID,23.0705,VALID,349,VALID,0,
2011-01-22, 02:44:04,VALID,1009.26,VALID,0,VALID,102.421,VALID,0,VALID,23.0705,VALID,349,VALID,0,
2011-01-22, 02:45:04,VALID,1009.24,VALID,0,VALID,102.46,VALID,0,VALID,23.0511,VALID,349,VALID,0,
2011-01-22, 02:46:04,VALID,1009.25,VALID,0,VALID,102.49,VALID,0,VALID,23.0316,VALID,349,VALID,0,
2011-01-22, 02:47:04,VALID,1009.22,VALID,0,VALID,102.505,VALID,0,VALID,23.0316,VALID,349,VALID,0,
2011-01-22, 02:48:04,VALID,1009.21,VALID,0,VALID,102.574,VALID,0,VALID,23.0103,VALID,349,VALID,0,
2011-01-22, 02:49:04,VALID,1009.19,VALID,0,VALID,102.673,VALID,0,VALID,23.0121,VALID,349,VALID,0.0210938,
2011-01-22, 02:50:04,VALID,1009.16,VALID,0,VALID,102.688,VALID,0,VALID,23.0121,VALID,341,VALID,0.0902344,
2011-01-22, 02:51:04,VALID,1009.15,VALID,0,VALID,102.643,VALID,0,VALID,23.0121,VALID,341,VALID,0.138281,
2011-01-22, 02:52:04,VALID,1009.12,VALID,0,VALID,102.658,VALID,0,VALID,23.0121,VALID,341,VALID,0.294922,
2011-01-22, 02:53:04,VALID,1009.11,VALID,0,VALID,102.666,VALID,0,VALID,22.9926,VALID,341,VALID,0,
2011-01-22, 02:54:04,VALID,1009.12,VALID,0,VALID,102.627,VALID,0,VALID,23.0121,VALID,341,VALID,0.15,
2011-01-22, 02:55:04,VALID,1009.1,VALID,0,VALID,102.612,VALID,0,VALID,22.9909,VALID,341,VALID,0,
2011-01-22, 02:56:04,VALID,1009.11,VALID,0,VALID,102.65,VALID,0,VALID,22.9926,VALID,341,VALID,0,
2011-01-22, 02:57:04,VALID,1009.15,VALID,0,VALID,102.643,VALID,0,VALID,23.0121,VALID,341,VALID,0.165234,
2011-01-22, 02:58:04,VALID,1009.12,VALID,0,VALID,102.643,VALID,0,VALID,22.9714,VALID,341,VALID,0,
2011-01-22, 02:59:04,VALID,1009.11,VALID,0,VALID,102.605,VALID,0,VALID,22.9519,VALID,341,VALID,0.0695312,
2011-01-22, 03:00:04,VALID,1009.08,VALID,0,VALID,102.551,VALID,0,VALID,22.9536,VALID,341,VALID,0.192578,
2011-01-22, 03:01:04,VALID,1009.07,VALID,0,VALID,102.627,VALID,0,VALID,22.9342,VALID,341,VALID,0.314063,
2011-01-22, 03:02:04,VALID,1009.04,VALID,0,VALID,102.734,VALID,0.105969,VALID,22.8935,VALID,341,VALID,0.288281,
2011-01-22, 03:03:04,VALID,1009.01,VALID,0,VALID,102.833,VALID,0,VALID,22.8952,VALID,341,VALID,0.309766,
2011-01-22, 03:04:04,VALID,1009,VALID,0,VALID,102.894,VALID,0,VALID,22.8562,VALID,341,VALID,0.355859,
2011-01-22, 03:05:04,VALID,1008.96,VALID,0,VALID,102.948,VALID,0,VALID,22.8368,VALID,341,VALID,0.276563,
2011-01-22, 03:06:04,VALID,1008.96,VALID,0,VALID,103.016,VALID,0,VALID,22.8173,VALID,341,VALID,0.0972656,
2011-01-22, 03:07:04,VALID,1008.97,VALID,0,VALID,103.039,VALID,0,VALID,22.7978,VALID,341,VALID,0.182031,
2011-01-22, 03:08:04,VALID,1008.98,VALID,0,VALID,103.093,VALID,0,VALID,22.7783,VALID,341,VALID,0,
2011-01-22, 03:09:04,VALID,1008.99,VALID,0,VALID,103.176,VALID,0,VALID,22.7376,VALID,341,VALID,0,
2011-01-22, 03:10:04,VALID,1008.97,VALID,0,VALID,103.237,VALID,0,VALID,22.7394,VALID,341,VALID,0,
2011-01-22, 03:11:04,VALID,1008.97,VALID,0,VALID,103.268,VALID,0,VALID,22.7411,VALID,341,VALID,0,
2011-01-22, 03:12:04,VALID,1008.96,VALID,0,VALID,103.375,VALID,0,VALID,22.7199,VALID,341,VALID,0,
2011-01-22, 03:13:04,VALID,1008.97,VALID,0,VALID,103.428,VALID,0,VALID,22.7411,VALID,341,VALID,0,
2011-01-22, 03:14:04,VALID,1008.93,VALID,0,VALID,103.489,VALID,0,VALID,22.7394,VALID,341,VALID,0,
2011-01-22, 03:15:04,VALID,1008.94,VALID,0,VALID,103.481,VALID,0,VALID,22.7199,VALID,341,VALID,0,
2011-01-22, 03:16:04,VALID,1008.93,VALID,0,VALID,103.527,VALID,0,VALID,22.7199,VALID,341,VALID,0,
2011-01-22, 03:17:04,VALID,1008.94,VALID,0,VALID,103.535,VALID,0,VALID,22.7199,VALID,341,VALID,0.239063,
2011-01-22, 03:18:04,VALID,1008.92,VALID,0,VALID,103.527,VALID,0,VALID,22.7394,VALID,341,VALID,0.184766,
2011-01-22, 03:19:04,VALID,1008.95,VALID,0,VALID,103.52,VALID,0,VALID,22.7199,VALID,341,VALID,0.2375,
2011-01-22, 03:20:04,VALID,1008.97,VALID,0,VALID,103.504,VALID,0,VALID,22.7004,VALID,341,VALID,0,
2011-01-22, 03:21:04,VALID,1008.98,VALID,0,VALID,103.497,VALID,0,VALID,22.7004,VALID,341,VALID,0,
2011-01-22, 03:22:04,VALID,1008.99,VALID,0,VALID,103.512,VALID,0,VALID,22.7021,VALID,341,VALID,0,
2011-01-22, 03:23:04,VALID,1008.97,VALID,0,VALID,103.588,VALID,0,VALID,22.7004,VALID,341,VALID,0,
2011-01-22, 03:24:04,VALID,1008.97,VALID,0,VALID,103.603,VALID,0,VALID,22.6809,VALID,341,VALID,0,
2011-01-22, 03:25:04,VALID,1008.98,VALID,0,VALID,103.603,VALID,0,VALID,22.6809,VALID,341,VALID,0,
2011-01-22, 03:26:04,VALID,1008.97,VALID,0,VALID,103.619,VALID,0,VALID,22.6614,VALID,341,VALID,0,
2011-01-22, 03:27:04,VALID,1008.98,VALID,0,VALID,103.642,VALID,0,VALID,22.6614,VALID,341,VALID,0,
2011-01-22, 03:28:04,VALID,1008.99,VALID,0,VALID,103.672,VALID,0,VALID,22.6826,VALID,341,VALID,0,
2011-01-22, 03:29:04,VALID,1009.02,VALID,0,VALID,103.664,VALID,0,VALID,22.642,VALID,341,VALID,0,
2011-01-22, 03:30:04,VALID,1009.02,VALID,0,VALID,103.687,VALID,0,VALID,22.642,VALID,340,VALID,0.245703,
2011-01-22, 03:31:04,VALID,1009.02,VALID,0,VALID,103.703,VALID,0,VALID,22.642,VALID,340,VALID,0,
2011-01-22, 03:32:04,VALID,1009,VALID,0,VALID,103.718,VALID,0,VALID,22.642,VALID,340,VALID,0,
2011-01-22, 03:33:04,VALID,1009,VALID,0,VALID,103.748,VALID,0,VALID,22.6437,VALID,340,VALID,0,
2011-01-22, 03:34:04,VALID,1008.97,VALID,0,VALID,103.726,VALID,0,VALID,22.6225,VALID,340,VALID,0,
2011-01-22, 03:35:04,VALID,1008.97,VALID,0,VALID,103.741,VALID,0,VALID,22.603,VALID,340,VALID,0,
2011-01-22, 03:36:04,VALID,1008.92,VALID,0,VALID,103.741,VALID,0,VALID,22.6242,VALID,340,VALID,0,
2011-01-22, 03:37:04,VALID,1008.9,VALID,0,VALID,103.771,VALID,0,VALID,22.6242,VALID,340,VALID,0,
2011-01-22, 03:38:04,VALID,1008.92,VALID,0,VALID,103.802,VALID,0,VALID,22.603,VALID,340,VALID,0,
2011-01-22, 03:39:04,VALID,1008.88,VALID,0,VALID,103.87,VALID,0,VALID,22.6225,VALID,340,VALID,0,
2011-01-22, 03:40:04,VALID,1008.88,VALID,0,VALID,103.87,VALID,0,VALID,22.6225,VALID,340,VALID,0,
2011-01-22, 03:41:04,VALID,1008.87,VALID,0,VALID,103.84,VALID,0,VALID,22.6225,VALID,340,VALID,0,
2011-01-22, 03:42:04,VALID,1008.89,VALID,0,VALID,103.84,VALID,0,VALID,22.6225,VALID,340,VALID,0,
2011-01-22, 03:43:04,VALID,1008.87,VALID,0,VALID,103.855,VALID,0,VALID,22.603,VALID,340,VALID,0,
2011-01-22, 03:44:04,VALID,1008.88,VALID,0,VALID,103.863,VALID,0,VALID,22.6437,VALID,340,VALID,0,
2011-01-22, 03:45:04,VALID,1008.87,VALID,0,VALID,103.84,VALID,0,VALID,22.603,VALID,340,VALID,0,
2011-01-22, 03:46:04,VALID,1008.87,VALID,0,VALID,103.848,VALID,0,VALID,22.5835,VALID,340,VALID,0,
2011-01-22, 03:47:04,VALID,1008.86,VALID,0,VALID,103.84,VALID,0,VALID,22.5852,VALID,340,VALID,0,
2011-01-22, 03:48:04,VALID,1008.85,VALID,0,VALID,103.878,VALID,0,VALID,22.5835,VALID,340,VALID,0.145313,
2011-01-22, 03:49:04,VALID,1008.86,VALID,0,VALID,103.901,VALID,0,VALID,22.5852,VALID,340,VALID,0.235547,
2011-01-22, 03:50:04,VALID,1008.84,VALID,0,VALID,103.901,VALID,0,VALID,22.564,VALID,340,VALID,0.258594,
2011-01-22, 03:51:04,VALID,1008.8,VALID,0,VALID,103.909,VALID,0,VALID,22.5446,VALID,340,VALID,0.348047,